Location: Pompeys Pillar
(45.9913°N, 107.9528°W)
Time: 04:51:08
(UTC+00:00)

Tiros 1 - Pass Details

Date: 01 June 2022
Orbit: 629 x 663 km, 48.4° (Epoch: 30 June)

Event Time Altitude Azimuth Distance (km) Brightness Sun altitude
Rises 11:34:36 0° 288° (WNW) 2,930 10.1 0.6°
Reaches altitude 10° 11:37:06 10° 278° (W) 2,024 9.3 1.0°
Maximum altitude 11:41:13 32° 216° (SW) 1,103 7.9 1.6°
Drops below altitude 10° 11:45:22 10° 154° (SSE) 2,034 9.7 2.2°
Sets 11:47:53 0° 144° (SE) 2,947 10.6 2.6°
